Location: Cruquius
(52.3348°N, 4.6319°E)
Time: 07:38:19
(UTC+00:00)

ARIANE 5 R/B - Pass Details

Date: 12 May 2021
Orbit: 620 x 656 km, 98.1° (Epoch: 13 June)

Event Time Altitude Azimuth Distance (km) Brightness Sun altitude
Exits shadow 21:15:27 13° 183° (S) 1,807 4.5 -12.8°
Maximum altitude 21:19:13 53° 259° (W) 769 3.2 -13.2°
Drops below altitude 10° 21:23:29 10° 337° (NNW) 2,002 6.6 -13.5°
Sets 21:25:44 0° 342° (NNW) 2,916 7.7 -13.7°
